Location: *
(41.7492°S, 135.4150°W)
Time: 23:08:05
(UTC+00:00)

USA 305 - Pass Details

Date: 20 September 2021
Orbit: 558 x 576 km, 54.0° (Epoch: 22 October)

Event Time Altitude Azimuth Distance (km) Brightness Sun altitude
Exits shadow 13:04:29 28° 358° (N) 1,114 4.1 -20.9°
Maximum altitude 13:06:12 41° 47° (NE) 854 3.9 -20.6°
Drops below altitude 10° 13:10:17 10° 117° (ESE) 1,904 6.7 -19.8°
Sets 13:12:38 0° 124° (SE) 2,806 7.8 -19.4°
